GFSCGP_con_lsi_111.txt.gz
Lid_Strength_Index
8 10 12 10 9 8 9 11 11 10 8 8 9 9 8 7 6 6 5 5 4 4 2 2 1 2 1 0 0 0 0 -0 0 1 1 1 2 1 1 -0 -0 -1 -1 -0
9 11 10 8 8 9 9 11 11 10 8 9 10 10 8 7 7 6 5 5 4 4 3 2 3 2 1 1 1 0 0 0 0 0 1 1 1 1 1 0 -0 -0 -0 -0
9 10 8 7 8 10 10 11 11 12 10 11 11 12 10 9 8 7 6 5 5 5 4 4 3 2 1 1 1 1 1 0 0 0 1 1 1 1 1 1 1 0 -0 -0
7 7 7 8 9 9 12 10 11 12 13 16 11 16 11 10 10 8 7 7 6 6 5 4 2 2 2 1 1 1 0 1 0 0 1 2 3 3 2 1 1 0 -0 -0
9 8 8 9 9 8 10 9 11 12 13 13 13 14 12 8 11 10 8 7 6 4 3 3 3 2 2 1 1 1 1 1 0 0 1 2 2 2 1 1 1 1 0 0
8 5 6 7 8 8 9 11 11 12 13 16 13 14 13 12 10 8 8 6 4 4 3 3 2 2 2 1 1 1 1 1 0 0 1 2 2 2 2 2 2 1 1 0
9 9 6 6 8 8 10 12 17 18 17 17 12 13 12 8 9 7 6 5 4 4 3 3 3 3 2 2 1 1 1 1 1 1 1 2 2 2 1 2 2 2 2 1
12 14 9 6 8 10 10 11 16 20 18 16 11 14 11 8 6 5 5 4 4 4 3 3 3 2 2 2 1 1 2 2 1 1 2 1 1 2 2 1 1 1 1 1
12 12 7 7 7 7 10 12 9 12 12 15 12 10 8 7 6 6 5 5 5 4 4 3 3 2 2 2 2 1 2 2 1 1 2 1 1 2 2 1 0 1 0 0
9 12 8 7 6 7 8 8 12 11 17 17 13 12 12 9 8 7 6 6 5 4 4 3 3 3 2 2 2 1 1 2 1 1 2 2 2 1 1 1 1 1 0 0
9 10 10 8 10 10 10 10 10 10 12 15 16 13 8 8 7 7 6 5 5 5 4 3 3 2 3 3 3 2 2 2 2 2 2 2 2 1 1 1 1 0 0 1
9 11 12 10 7 6 8 9 9 12 13 12 13 15 6 6 6 6 6 5 5 4 5 4 3 3 3 4 4 5 6 3 2 2 2 2 2 1 1 1 1 0 1 0
10 12 17 15 10 8 9 9 8 9 9 13 14 13 6 6 6 6 6 6 5 5 4 4 3 4 4 4 5 6 8 8 2 2 2 2 3 2 2 1 2 1 1 1
8 12 14 17 15 10 11 9 9 9 12 12 12 14 10 8 7 8 7 6 5 5 5 5 5 5 5 5 6 8 10 9 2 2 2 2 2 2 2 2 1 1 1 1
9 13 11 11 11 10 11 11 9 10 10 12 11 11 10 9 8 7 7 6 6 6 6 6 6 7 6 6 8 10 10 9 2 3 3 3 3 3 2 2 1 1 1 1
8 13 11 12 9 10 11 9 9 9 9 9 9 9 7 7 7 7 7 6 7 8 8 8 8 8 8 9 10 11 12 11 8 3 4 3 3 3 2 1 2 2 1 1
10 12 12 14 10 10 13 10 9 9 8 9 11 10 7 9 8 8 8 8 9 9 8 9 10 10 9 10 11 13 13 12 7 3 3 3 3 3 3 2 2 2 2 1
10 11 11 14 12 17 10 7 7 8 9 8 9 8 7 8 8 9 9 10 9 10 9 11 11 11 11 11 12 14 13 12 7 6 5 3 3 4 3 3 2 2 2 2
7 10 13 15 14 11 10 10 11 12 13 9 9 8 8 8 8 10 9 9 9 10 11 11 11 12 12 13 13 13 15 15 13 12 11 10 7 5 3 3 2 2 2 2
8 8 11 13 15 18 14 8 7 8 16 9 8 8 8 8 12 11 9 9 10 10 11 12 12 13 13 15 14 16 16 16 16 14 14 13 11 10 9 8 6 5 2 3
12 12 14 13 14 12 9 7 7 16 15 8 7 7 7 10 10 10 10 10 11 12 13 12 13 13 14 15 15 16 17 17 17 16 15 15 14 13 12 12 11 10 12 14
13 14 15 12 15 17 7 8 12 11 8 8 8 8 9 9 9 11 11 11 12 13 13 13 13 14 14 15 15 15 17 16 16 16 16 16 16 15 14 14 14 14 14 16
13 11 13 13 14 9 8 9 8 7 8 8 8 8 8 9 10 10 11 12 13 13 14 14 15 15 15 15 15 15 15 15 16 17 17 17 17 17 16 16 15 16 16 16
9 7 10 10 11 11 9 9 8 8 8 8 7 7 8 9 10 11 11 13 13 13 14 15 15 16 16 15 15 15 13 13 15 16 17 17 17 17 17 17 17 17 17 17
8 8 10 11 10 10 10 10 9 9 8 8 8 9 9 9 10 10 11 13 13 14 14 14 15 16 16 15 16 15 14 13 14 15 15 16 16 17 18 18 17 17 17 16
7 11 11 12 11 10 11 10 9 10 10 9 9 10 10 10 10 10 11 12 12 13 13 14 15 15 15 15 15 15 14 14 14 15 16 16 16 16 17 18 18 16 15 15

GFSCGP_con_lsi_114.txt.gz
Lid_Strength_Index
8 10 12 12 9 9 9 9 10 9 7 8 9 9 8 7 7 7 6 6 5 4 3 2 2 2 1 1 1 1 1 1 1 2 2 2 2 1 1 0 0 0 -0 -0
10 12 9 9 9 9 9 10 10 8 7 8 9 9 8 7 7 7 6 6 6 5 4 3 2 2 2 1 1 1 1 1 1 1 1 1 1 1 1 1 0 0 0 0
12 10 7 9 10 9 9 10 10 10 9 10 9 11 11 8 7 6 6 5 5 5 5 4 3 3 2 2 1 1 1 1 1 1 1 1 1 2 2 1 1 1 0 0
11 8 8 9 9 9 11 8 9 9 11 16 10 16 12 10 9 8 8 7 6 5 5 5 3 3 2 2 1 1 1 1 1 1 1 2 3 3 2 2 1 1 0 0
12 11 9 10 9 8 9 7 8 9 11 12 12 15 13 10 10 9 8 7 6 6 6 5 3 3 2 2 2 1 1 1 1 1 1 2 3 2 2 1 1 1 1 0
10 7 8 8 7 7 7 8 9 9 11 16 14 14 14 11 10 9 8 7 5 5 4 4 3 2 2 1 2 1 1 2 1 1 1 2 2 2 2 2 2 2 1 1
10 9 7 6 9 7 8 10 16 18 17 18 12 14 13 9 8 7 7 6 5 4 4 5 4 3 3 2 2 2 2 2 1 2 2 2 2 2 2 2 2 2 2 2
13 17 10 7 8 10 10 10 16 20 19 16 12 15 13 8 7 6 5 5 5 5 4 4 3 3 3 3 3 3 2 2 2 2 2 2 2 2 2 2 2 2 2 1
14 13 9 8 7 7 10 12 9 13 14 16 13 12 8 7 7 6 6 6 5 5 4 4 3 4 3 3 3 3 3 3 2 2 2 2 2 2 2 1 1 1 1 1
11 16 9 9 7 7 9 8 13 13 18 20 18 13 13 10 8 7 7 6 5 4 4 4 4 4 3 3 3 3 4 4 3 2 2 2 2 1 1 1 2 2 1 1
9 12 12 8 11 11 10 11 10 11 12 16 18 17 9 9 8 9 6 6 6 6 5 4 4 3 3 3 3 4 5 5 5 5 3 2 2 2 1 2 2 2 1 1
9 12 15 11 8 7 8 10 10 14 14 13 13 14 8 8 7 6 8 6 6 5 5 4 4 4 4 4 4 5 6 6 6 7 3 2 2 2 2 2 2 2 2 1
9 13 17 14 11 8 10 10 9 9 10 14 16 14 8 8 8 7 8 7 6 6 6 6 5 4 5 5 5 6 6 7 7 7 4 2 2 2 2 2 2 2 2 2
8 12 15 19 16 12 12 10 9 10 13 13 13 13 10 10 9 8 7 6 7 6 6 6 6 6 6 7 7 8 8 8 8 8 4 3 2 2 2 2 2 3 2 2
8 14 12 12 10 12 13 13 10 11 10 12 14 13 12 10 9 8 7 7 7 7 6 7 7 7 8 8 9 9 9 9 9 10 6 3 2 2 2 3 3 2 2 1
8 13 12 12 10 11 14 12 12 12 11 11 10 11 9 8 7 8 8 8 8 8 8 8 8 9 10 10 11 10 10 10 10 10 7 2 2 2 2 3 3 3 3 2
10 12 13 14 11 10 13 10 10 9 9 9 13 11 9 9 9 9 9 8 9 9 9 10 10 11 11 11 11 11 11 10 11 9 4 3 3 3 3 3 3 3 3 2
10 11 12 15 13 17 12 9 9 10 10 9 9 9 8 9 10 9 9 9 10 10 10 11 11 11 12 11 12 11 11 12 12 13 10 5 3 3 2 3 3 3 2 2
7 10 13 15 15 12 13 10 11 12 13 9 9 9 8 9 8 10 9 9 10 10 11 11 11 12 12 12 12 12 13 13 13 15 14 12 9 3 3 3 3 2 3 3
8 8 12 13 17 18 13 9 7 8 16 11 8 8 8 8 12 12 9 10 10 11 11 12 11 12 13 13 12 13 14 15 16 16 15 14 13 10 8 7 5 6 5 9
12 12 14 14 15 14 9 8 6 15 15 10 8 9 9 11 10 10 9 10 11 12 12 12 12 13 14 13 13 14 15 16 16 16 15 15 15 14 13 12 11 11 13 14
13 15 15 14 15 18 9 8 12 10 8 8 9 9 10 9 9 10 10 11 12 13 13 13 14 14 14 14 14 15 15 16 16 17 17 17 16 16 15 14 14 14 15 15
14 11 13 13 14 10 9 9 8 8 9 8 8 8 9 10 10 10 11 12 13 13 13 13 15 15 15 15 15 15 15 15 16 17 18 17 17 17 16 16 16 16 16 17
9 7 11 11 11 10 10 9 8 8 9 9 8 8 9 10 9 10 11 12 13 13 14 14 14 15 16 15 14 14 14 14 15 16 17 18 18 18 17 18 18 18 18 18
9 8 10 11 10 9 10 10 9 9 9 9 8 9 10 9 10 10 11 11 12 13 13 14 15 16 16 15 15 14 14 14 15 16 17 17 18 19 19 18 18 18 18 18
8 11 11 13 11 10 11 10 9 11 11 10 10 10 10 10 11 11 12 12 12 13 13 14 15 15 16 15 15 15 14 14 15 16 16 16 17 18 19 19 19 17 16 16

GFSCGP_con_lsi_117.txt.gz
Lid_Strength_Index
10 14 16 13 11 12 12 12 13 11 9 9 10 10 9 9 8 9 9 8 8 7 6 5 5 5 6 5 3 2 2 2 1 2 3 3 2 2 3 2 2 1 1 0
10 14 11 9 9 9 11 13 12 10 8 9 9 10 9 8 9 8 9 9 8 8 7 5 6 6 5 4 3 4 4 2 1 1 2 2 3 3 2 3 2 1 2 1
11 10 8 9 10 12 11 13 12 12 10 9 11 12 10 8 9 8 7 8 8 7 7 6 5 6 5 4 4 3 3 5 4 2 3 4 3 4 4 4 3 2 1 1
12 9 11 11 12 11 13 11 11 11 12 16 10 17 12 9 10 9 9 9 8 7 6 6 5 5 6 5 3 3 2 2 2 3 4 4 4 5 5 4 4 2 1 1
12 10 12 13 11 9 11 9 11 11 12 14 13 16 15 11 12 10 10 8 9 7 7 6 4 5 5 5 4 3 2 2 2 2 2 2 4 3 4 4 4 4 2 1
10 8 9 10 9 8 7 10 11 11 13 19 14 15 16 14 12 10 9 8 7 7 6 5 4 5 5 5 5 5 5 4 3 2 3 3 3 3 4 4 3 2 2 1
10 10 8 8 11 9 10 12 17 20 20 20 12 15 13 10 9 9 9 7 6 6 6 6 5 5 5 6 6 5 5 4 4 4 3 4 2 3 3 3 3 3 2 2
15 17 11 8 10 11 11 12 18 23 21 18 12 16 13 9 8 8 7 6 6 6 5 5 5 6 6 6 6 7 6 6 5 4 3 3 4 2 3 2 2 2 2 1
15 15 9 8 8 9 11 13 11 15 15 18 14 13 10 9 8 7 7 7 7 6 5 5 5 6 6 6 6 7 7 7 6 6 5 4 3 2 2 2 1 2 1 1
11 16 10 10 9 8 10 9 16 15 21 22 18 15 14 11 10 9 9 8 7 6 5 5 6 6 5 5 6 7 7 7 7 7 7 6 5 3 1 2 2 2 1 2
10 13 13 10 12 12 11 12 12 14 14 19 22 19 10 10 9 10 9 8 7 7 7 7 6 6 6 6 6 6 7 7 7 7 8 7 7 4 1 2 2 2 2 2
9 13 16 13 9 8 9 11 11 16 17 14 17 18 9 9 9 9 8 7 7 7 8 8 8 8 8 7 7 8 8 9 9 9 9 8 8 2 2 2 2 1 2 2
10 14 18 15 12 10 12 10 10 10 12 15 18 17 9 9 9 8 8 8 8 8 8 8 9 9 9 8 8 9 9 9 9 9 9 8 8 2 2 2 2 2 2 2
8 12 15 18 16 13 15 12 11 11 14 14 15 15 12 10 10 10 9 9 9 9 9 10 10 10 9 9 9 9 10 10 9 10 10 9 8 2 2 2 3 2 2 2
9 14 13 12 11 13 13 13 12 13 12 13 14 14 12 10 10 10 10 10 10 10 10 10 10 11 11 10 10 10 10 10 10 10 10 9 8 3 2 2 2 2 2 3
8 14 12 14 11 11 13 12 12 12 12 12 12 14 9 8 9 11 11 11 12 10 10 10 10 10 11 11 12 11 11 11 10 10 10 10 7 2 2 2 2 3 3 3
11 13 14 16 12 12 17 14 13 12 12 11 15 12 9 11 11 12 11 12 12 11 11 11 11 11 12 12 11 12 11 11 11 11 11 11 11 2 2 2 2 2 3 3
11 12 13 16 14 20 13 9 10 12 11 10 10 10 10 11 11 11 11 12 12 11 11 11 12 12 12 12 12 11 12 12 12 13 12 12 12 8 2 2 2 3 3 3
8 11 15 17 17 14 12 11 11 13 13 11 10 9 10 11 11 12 10 10 11 12 11 11 11 12 12 12 12 12 13 13 14 14 13 14 13 12 3 3 3 3 3 3
9 10 13 15 18 20 13 11 8 9 15 10 10 11 10 9 12 13 10 11 12 12 12 12 12 12 13 13 12 12 13 14 15 15 14 14 14 13 12 5 3 3 7 11
14 13 15 16 17 15 11 9 8 15 15 9 10 11 11 12 12 10 10 11 12 12 13 13 12 14 14 13 13 14 14 15 15 15 15 15 15 14 14 12 8 10 13 14
14 15 17 15 16 18 9 10 13 11 9 9 9 9 10 10 10 11 11 12 12 13 13 13 14 14 14 14 14 15 15 14 15 16 17 17 17 16 15 15 14 14 15 16
15 12 14 13 14 10 9 10 9 8 10 10 9 9 9 10 11 11 12 12 13 13 14 13 14 15 15 15 15 16 14 14 15 16 18 18 18 17 16 16 16 16 16 16
9 8 12 11 11 11 11 10 9 9 9 9 9 10 9 10 11 11 12 12 13 13 14 14 14 15 16 15 15 14 14 14 15 16 17 18 19 18 18 17 17 17 17 18
10 10 13 11 11 10 11 10 10 10 10 10 9 10 11 11 11 12 13 13 13 13 14 14 15 16 16 15 15 14 14 14 15 15 15 17 18 19 18 18 18 18 17 17
9 12 12 13 11 10 11 10 10 11 11 11 11 11 11 11 12 12 13 13 13 14 14 15 16 16 16 16 15 15 14 15 15 15 16 16 17 18 19 19 19 16 16 16

GFSCGP_con_lsi_120.txt.gz
Lid_Strength_Index
11 16 17 15 13 12 13 14 15 14 12 12 12 11 10 8 8 8 8 9 9 8 6 6 6 6 6 7 6 2 2 2 1 2 2 2 3 3 2 2 1 1 1 1
14 15 11 10 10 11 12 13 13 12 11 12 11 11 9 8 8 7 8 9 8 9 8 7 6 7 6 5 5 2 2 2 1 1 1 2 2 3 2 2 2 1 2 1
13 11 8 9 11 12 13 14 13 13 11 11 11 13 11 8 8 8 8 8 8 8 8 7 6 7 5 5 4 2 2 2 1 2 3 4 4 4 4 4 3 2 2 2
12 9 10 11 12 11 15 11 11 11 12 17 12 18 13 10 9 9 9 9 9 8 7 7 7 6 5 5 4 6 6 5 5 4 4 4 3 4 4 3 3 3 2 2
12 10 11 12 11 10 13 10 11 11 12 15 13 17 14 11 11 9 10 9 10 9 8 5 5 5 5 6 6 6 6 6 5 4 4 4 4 4 4 5 4 3 2 2
11 8 9 10 9 9 9 10 11 10 12 18 14 16 16 14 11 10 10 9 9 6 5 5 5 5 6 6 6 6 6 6 5 5 4 3 3 3 4 5 5 4 3 2
11 10 8 8 11 9 10 13 18 19 19 20 13 16 14 11 11 10 9 9 7 5 6 6 6 6 7 7 7 6 6 7 6 7 7 6 5 4 3 3 3 4 4 4
16 17 10 8 11 13 12 12 17 22 21 19 14 18 14 10 8 9 8 7 6 6 6 7 7 7 7 7 7 7 7 8 7 8 8 8 6 6 4 2 2 3 2 2
15 15 9 8 8 10 11 14 11 15 15 18 15 14 11 9 9 8 8 7 7 7 8 7 7 7 8 8 8 8 8 8 8 8 8 9 8 8 6 4 1 2 2 2
11 16 10 10 9 9 11 9 16 15 21 22 19 17 17 14 12 10 9 9 9 8 8 8 9 8 8 9 9 9 9 10 9 9 9 9 9 8 8 5 3 1 2 2
10 13 13 10 13 14 12 13 14 14 16 21 22 19 12 12 11 10 10 9 10 10 10 10 10 9 9 9 9 10 10 10 10 10 10 10 10 9 8 7 5 1 1 1
10 13 16 13 9 9 10 13 13 17 19 16 17 18 10 10 9 9 10 10 9 10 10 10 11 11 11 10 10 11 11 11 10 10 10 11 10 10 7 6 3 1 1 2
9 13 18 15 12 10 13 12 11 13 13 17 19 18 9 9 10 10 11 10 10 10 11 11 12 12 12 12 12 12 12 11 11 10 10 10 10 9 8 8 2 1 2 2
8 12 15 18 16 13 14 13 12 13 17 15 16 16 12 11 13 11 11 11 11 12 12 12 13 13 13 12 12 12 12 11 11 11 10 10 10 9 9 8 4 2 1 1
9 14 13 12 11 13 13 14 13 14 13 15 14 15 12 12 12 12 13 12 12 12 12 13 13 13 13 13 13 12 11 11 10 10 10 10 10 9 8 6 3 1 2 1
9 14 13 14 11 13 14 13 12 13 13 13 13 14 10 10 11 12 13 13 13 13 13 13 13 13 13 13 13 13 12 12 11 11 11 11 10 10 9 8 3 2 2 2
11 13 14 16 12 13 16 14 13 12 12 12 15 12 11 12 13 13 13 13 14 14 14 13 13 13 13 13 12 12 12 12 13 13 12 12 12 11 11 10 2 2 2 2
11 12 13 16 14 20 14 11 11 12 12 12 11 12 12 13 13 12 13 14 14 14 13 13 13 13 13 12 12 12 12 12 13 13 13 13 12 12 11 11 7 2 2 2
9 12 15 17 17 15 13 12 12 13 13 11 11 11 11 12 11 13 12 12 13 13 13 13 12 13 13 13 13 13 13 13 14 14 14 14 14 13 12 12 11 2 2 3
9 10 13 15 18 20 13 12 10 10 16 10 11 11 11 10 14 14 12 12 13 13 13 13 13 13 14 14 14 14 14 14 15 15 15 15 14 14 14 14 13 2 4 8
13 13 15 16 17 14 12 11 9 15 15 10 10 10 11 13 12 12 12 12 13 13 14 13 13 14 14 14 14 14 14 15 14 14 15 15 15 15 14 14 14 11 12 13
14 15 15 15 16 18 10 11 14 11 10 10 9 10 11 11 11 12 13 13 14 14 14 13 15 15 14 14 14 15 15 14 14 15 16 17 16 16 15 15 15 15 14 16
14 12 14 13 14 10 10 10 9 9 10 11 11 10 10 11 12 12 13 14 14 14 15 15 14 15 14 14 14 15 14 14 14 16 17 17 17 16 16 16 16 17 16 17
10 9 12 11 11 11 11 10 9 9 10 10 10 11 10 11 11 12 13 14 14 15 16 16 16 16 16 14 14 14 14 14 14 15 17 17 18 18 17 17 17 17 17 18
10 11 12 12 11 10 11 10 11 10 10 10 10 10 11 11 13 13 14 15 15 15 16 17 17 17 17 15 15 14 14 14 14 15 16 16 17 18 18 18 17 17 17 17
10 12 15 17 13 11 12 10 10 12 11 11 11 12 12 12 13 14 15 15 15 16 16 17 17 17 17 16 15 14 14 15 15 15 16 17 17 17 18 18 18 16 16 16

GFSCGP_con_lsi_126.txt.gz
Lid_Strength_Index
13 16 18 17 16 15 16 17 18 16 14 16 16 16 15 13 13 13 13 12 11 10 7 7 6 6 4 3 2 2 2 1 1 2 2 2 2 1 1 0 0 0 0 0
16 17 14 14 14 15 16 17 17 15 13 13 15 16 13 12 13 12 12 12 12 11 8 6 7 8 7 4 2 2 2 2 1 1 1 2 1 1 1 0 1 1 0 1
16 14 12 13 15 15 15 15 14 14 12 11 12 13 12 10 9 9 9 10 10 10 9 6 7 8 8 8 6 3 2 2 1 1 2 4 3 3 2 2 1 1 1 2
15 13 14 15 15 14 16 12 11 13 14 18 13 19 15 12 12 10 9 9 8 8 7 6 6 7 6 5 5 2 3 3 3 3 3 4 3 3 3 2 2 1 1 1
15 13 14 15 13 11 13 10 11 12 14 15 14 17 14 12 13 11 9 8 7 6 6 5 6 7 7 6 6 5 6 7 6 4 4 4 5 4 5 4 3 3 1 1
12 10 11 11 10 10 9 11 12 13 15 19 16 17 17 15 13 10 9 8 7 6 6 6 7 7 8 7 8 8 9 9 9 9 8 7 7 6 4 4 4 3 1 2
12 11 9 9 11 10 11 14 19 21 21 20 14 16 16 12 10 10 9 8 7 8 8 8 9 10 10 10 9 10 11 11 10 10 10 10 9 8 7 5 2 2 2 2
16 18 11 9 11 12 12 14 17 23 20 19 14 18 15 10 9 8 8 8 9 10 10 11 10 11 11 11 11 11 11 12 11 11 11 10 10 9 8 7 6 4 3 2
15 16 10 10 9 9 13 15 11 15 15 18 16 14 11 10 10 9 10 10 11 10 10 11 12 12 12 13 13 13 12 12 12 11 11 10 10 10 10 10 8 7 5 3
12 16 11 10 9 9 11 10 16 15 21 22 19 18 17 13 12 12 12 12 12 11 11 11 12 12 12 12 12 12 12 12 12 12 11 11 11 11 10 10 9 8 7 6
12 13 13 11 13 14 13 14 14 14 16 21 22 19 13 12 11 12 12 12 12 13 12 13 13 13 13 13 13 13 13 13 13 13 12 12 11 11 10 10 10 9 7 7
12 12 15 14 11 9 11 13 13 18 18 17 18 18 12 12 13 13 12 12 12 13 13 13 14 14 14 14 14 14 14 14 13 13 13 12 12 11 11 11 10 9 8 7
11 13 17 17 13 11 13 11 12 13 14 18 19 18 13 13 13 12 13 13 13 13 13 13 14 15 15 14 14 14 14 14 14 14 14 14 13 13 13 12 11 10 9 8
8 12 16 20 17 13 14 13 12 13 17 17 17 16 15 14 15 14 14 13 14 14 14 14 14 14 14 14 14 14 13 13 14 13 13 14 13 13 12 12 11 10 9 9
10 14 13 12 12 12 13 14 13 14 14 17 15 16 15 14 14 14 14 14 14 14 14 14 15 15 15 15 14 14 14 14 13 14 14 14 13 13 12 12 11 11 10 9
11 14 13 14 12 13 14 13 13 14 13 13 13 15 12 13 13 14 14 14 15 15 16 16 16 16 16 16 16 15 15 14 14 14 14 14 13 13 13 12 12 11 10 10
12 13 14 16 12 14 16 14 13 14 13 13 16 14 12 14 15 15 15 15 16 16 16 16 17 17 16 16 15 15 15 14 14 14 15 15 14 14 13 13 12 12 11 10
12 12 13 16 14 20 13 11 11 13 13 13 13 13 13 14 14 14 14 15 16 16 16 16 17 16 15 15 15 15 14 14 14 14 15 15 15 15 14 13 12 12 11 11
11 12 15 17 17 15 13 13 14 14 14 12 13 13 12 12 11 14 14 14 15 16 15 16 15 16 16 15 14 14 15 15 15 15 16 16 15 15 14 14 14 13 12 11
10 11 13 15 18 20 15 13 10 10 16 12 11 12 13 13 16 16 13 14 15 15 15 16 16 15 15 15 14 15 16 15 16 15 16 16 15 15 15 14 14 13 12 12
13 13 15 15 16 14 12 11 10 16 17 12 12 11 12 14 13 13 13 14 15 16 16 16 16 16 16 15 15 16 16 16 15 15 16 16 15 15 15 15 14 14 14 13
13 14 15 14 17 20 11 11 14 12 10 11 11 11 11 11 12 13 14 15 16 17 17 17 17 17 16 15 15 15 16 14 15 16 17 16 16 15 15 15 15 15 14 15
17 12 13 13 14 11 10 11 10 9 10 10 11 11 10 12 13 14 15 15 16 17 18 18 18 17 16 15 15 16 15 14 14 17 17 17 16 16 16 16 16 16 16 16
10 10 12 12 11 11 11 10 10 10 11 11 11 11 12 13 14 15 15 15 17 18 18 18 18 18 18 16 15 14 14 13 14 16 17 17 17 17 16 16 17 17 17 17
10 10 12 12 11 10 11 10 11 10 10 10 11 12 12 13 15 15 16 16 17 17 17 17 18 18 18 17 15 14 14 14 15 15 16 17 17 17 17 17 17 18 17 17
10 12 15 14 11 11 11 10 9 11 11 11 11 12 13 13 15 16 16 16 16 17 16 17 17 17 17 17 16 15 14 14 15 16 16 17 18 18 18 18 18 16 17 17

GFSCGP_con_lsi_129.txt.gz
Lid_Strength_Index
13 14 16 14 14 14 15 16 16 15 12 14 14 13 12 11 11 11 11 10 10 10 8 7 6 5 4 1 2 2 2 1 1 1 2 1 2 1 0 -0 -1 -1 -0 0
14 16 13 13 13 14 15 16 15 14 12 12 13 13 11 11 11 10 10 10 10 10 9 8 7 6 4 4 2 2 2 1 1 1 1 1 1 1 0 -0 -0 -1 -1 -1
15 13 12 13 13 14 14 15 15 14 13 11 12 12 12 9 9 9 9 8 8 9 9 9 8 6 4 3 2 2 2 2 1 1 1 1 0 1 1 1 1 0 -0 -1
13 12 13 13 14 13 15 12 12 12 13 16 10 18 12 10 10 9 9 8 7 7 7 8 8 7 4 3 2 1 1 1 1 1 1 2 2 3 2 1 1 0 -0 -0
13 12 13 14 13 12 12 10 10 11 13 14 13 16 12 9 11 11 9 7 6 5 5 6 6 5 3 2 3 2 2 1 1 1 1 2 2 2 1 1 1 1 1 1
12 10 11 11 9 9 8 10 11 11 14 18 15 15 13 12 12 11 8 7 7 6 4 4 3 3 4 3 4 3 4 6 7 4 2 2 2 2 2 2 2 1 1 3
13 12 10 9 10 8 10 12 17 17 18 17 13 14 13 12 10 11 10 10 10 9 9 7 7 7 7 6 7 6 6 7 9 10 11 9 8 6 4 2 2 2 2 1
16 16 10 8 10 11 11 13 17 22 19 17 12 16 14 10 10 11 10 11 10 10 9 9 9 9 10 9 9 9 9 9 10 10 10 10 10 9 9 7 6 2 1 1
15 15 9 9 8 9 13 15 11 16 14 17 14 13 11 11 12 12 13 12 13 11 10 10 10 11 11 10 12 11 11 10 10 10 10 10 9 9 9 9 8 6 6 5
12 15 11 9 8 8 11 9 16 15 21 21 16 17 17 15 14 13 14 14 14 12 11 11 11 12 11 12 11 12 11 12 12 11 11 10 10 10 9 8 8 7 7 7
11 12 12 10 12 12 12 12 13 14 15 20 20 18 13 14 14 14 14 15 14 14 13 13 12 12 12 12 12 12 12 13 12 11 12 11 11 10 10 10 10 9 8 7
10 11 14 13 10 8 10 11 12 17 17 15 17 18 12 12 13 13 14 14 15 13 14 13 13 13 13 13 13 13 13 13 12 12 12 12 11 11 11 10 10 9 8 7
10 12 16 14 11 9 12 11 12 13 14 17 19 17 12 12 13 13 14 14 14 14 15 15 15 15 15 15 14 14 13 13 13 13 12 12 12 13 12 11 10 10 9 8
8 11 14 16 14 12 14 13 12 13 17 16 16 16 15 15 15 14 14 14 15 15 15 15 15 16 15 15 15 14 15 15 15 14 13 13 13 13 12 11 11 11 10 10
10 13 12 11 11 12 13 13 13 15 13 15 16 17 15 14 14 15 14 14 15 15 16 16 16 16 16 16 15 14 14 14 14 14 14 14 13 13 13 12 12 11 10 10
10 13 12 13 11 12 14 13 13 14 14 13 14 15 12 13 13 14 15 15 16 16 15 15 15 16 16 16 15 14 14 14 13 14 14 14 13 13 13 12 11 11 11 11
11 12 13 15 12 13 16 14 13 13 13 14 16 13 12 14 15 15 15 16 16 16 16 16 16 16 16 16 15 15 15 14 14 14 15 15 14 14 13 13 12 12 12 11
11 12 12 15 13 20 13 11 11 13 13 12 12 13 12 14 14 14 14 15 16 17 17 16 17 16 16 16 16 15 15 15 15 15 15 15 15 14 14 13 13 12 12 12
9 10 14 16 16 14 12 13 14 14 14 12 12 12 12 11 11 14 14 14 15 16 16 16 16 15 15 14 14 15 14 14 14 15 16 15 15 15 14 14 14 13 12 12
10 10 12 14 17 19 13 11 10 10 15 12 12 12 12 12 15 15 14 14 15 15 15 16 16 15 15 15 14 15 16 15 16 16 15 15 15 15 15 15 14 13 13 13
12 12 14 14 15 14 12 10 9 15 15 11 11 11 11 13 13 13 13 14 15 15 16 15 15 15 15 14 14 15 15 15 14 15 15 15 15 15 15 15 14 14 14 14
13 14 14 14 16 17 11 10 14 12 10 10 11 11 11 11 12 13 14 15 15 16 16 16 16 16 15 14 14 15 15 14 14 15 15 15 15 14 15 15 15 14 14 15
14 11 12 12 13 10 10 10 10 9 10 11 11 11 10 12 13 13 14 15 15 16 16 16 16 16 15 15 14 15 15 14 14 15 15 15 15 14 14 15 16 15 15 15
10 9 11 11 11 11 10 10 10 9 11 10 10 11 11 13 13 14 14 15 15 16 16 16 16 16 16 15 14 15 14 13 14 15 15 15 15 15 14 14 14 16 16 16
10 9 11 11 10 10 10 10 10 9 9 10 11 11 12 12 14 14 15 15 15 15 15 15 16 16 16 15 14 14 14 13 14 14 14 15 14 15 15 15 15 15 15 16
10 11 12 12 10 10 10 10 9 10 10 10 11 12 12 13 14 14 15 15 15 15 15 15 15 15 16 15 15 14 14 14 14 14 15 15 15 15 15 16 16 15 16 16

GFSCGP_con_lsi_135.txt.gz
Lid_Strength_Index
8 11 11 10 10 11 12 13 13 11 9 11 10 10 8 6 5 6 6 5 5 5 5 3 2 2 3 3 3 2 1 -0 0 1 2 1 2 1 1 0 -0 -0 -0 -0
10 11 9 10 10 11 12 13 13 11 10 10 10 10 7 5 6 6 6 7 7 7 6 5 4 3 2 1 2 2 2 1 1 1 1 1 1 1 0 0 -0 -0 -0 -0
11 10 10 11 11 12 12 12 12 12 10 8 9 10 8 6 6 6 5 6 7 8 8 7 6 4 2 2 1 3 3 1 1 0 1 1 1 1 1 1 1 0 -0 -0
11 9 11 11 12 11 13 10 10 10 10 12 8 14 9 8 7 7 6 7 6 7 8 8 7 5 3 2 1 1 2 2 1 1 1 2 2 3 2 1 1 0 -0 -0
11 11 12 12 11 11 11 8 9 9 10 10 10 12 9 8 9 9 8 9 8 8 9 10 10 8 5 4 2 1 1 2 1 0 1 2 2 2 1 1 1 0 0 -0
10 9 10 10 9 8 7 8 8 8 10 15 11 11 12 11 10 10 10 10 10 10 10 10 10 9 8 6 5 1 1 2 0 0 1 1 2 2 2 2 2 1 1 1
11 11 9 8 9 7 8 10 13 14 15 14 10 11 13 10 9 9 11 11 11 11 11 11 12 11 9 7 5 4 3 2 1 1 2 1 2 1 2 2 2 2 2 1
14 14 10 7 9 10 10 10 14 18 16 14 10 14 13 9 8 8 9 10 11 11 11 12 12 12 11 9 7 6 6 6 4 4 6 5 5 2 1 1 1 1 1 1
13 13 9 9 7 7 11 12 9 13 12 14 12 11 9 9 9 9 10 11 12 12 12 12 13 13 12 11 10 9 7 7 7 6 8 8 7 5 6 6 3 1 1 1
11 13 10 9 6 6 8 7 13 12 19 18 13 15 15 13 12 11 13 13 13 13 13 13 14 14 13 12 10 9 8 8 8 8 8 9 8 8 7 7 6 5 5 3
8 10 10 9 9 9 9 11 11 10 12 17 18 17 12 13 12 13 12 13 13 14 14 14 14 14 14 13 13 11 11 11 10 10 10 9 9 8 8 8 8 6 5 5
7 9 12 10 7 6 8 10 10 16 15 15 14 17 11 11 11 12 12 12 13 13 14 14 14 14 14 15 14 13 12 11 10 11 10 11 11 9 10 10 9 7 6 6
7 10 14 12 9 7 10 9 9 10 12 15 18 17 10 10 11 11 12 12 12 13 14 14 14 14 15 15 15 15 13 14 13 12 13 12 10 10 10 10 9 8 8 7
7 9 12 14 14 10 12 10 9 11 16 16 15 14 12 12 13 12 12 12 13 13 13 14 14 14 15 15 15 15 15 15 14 13 14 13 12 12 12 10 9 8 8 8
7 11 10 9 9 10 12 11 11 13 13 14 14 14 13 12 12 12 11 12 13 13 13 14 14 14 14 15 15 15 14 13 12 14 14 14 13 12 12 10 10 9 8 8
7 11 10 11 9 11 12 11 10 11 11 12 12 13 10 10 10 11 12 12 13 14 14 14 14 14 15 15 15 14 14 13 12 13 13 13 13 12 12 12 11 11 10 9
9 10 11 13 10 13 15 12 12 12 11 11 14 12 10 11 11 12 12 12 13 13 13 14 14 14 14 14 14 14 14 13 14 13 14 14 13 13 13 13 12 12 12 11
9 10 10 12 12 19 13 8 10 11 12 11 11 11 10 10 11 10 11 12 12 12 13 13 13 14 14 14 14 13 13 13 14 14 14 13 13 14 13 13 13 13 12 11
7 9 11 13 13 14 11 9 11 11 13 11 12 11 10 9 9 11 10 11 11 12 12 12 12 12 14 14 13 13 14 14 15 15 14 14 14 13 13 13 13 13 13 12
7 7 10 12 14 17 12 9 7 8 14 10 10 10 10 9 11 12 11 10 11 11 12 12 11 12 13 13 13 14 14 14 15 14 14 13 13 14 14 14 13 11 11 12
11 11 13 12 13 13 8 7 6 14 13 9 9 10 10 11 11 10 10 10 11 12 12 12 12 12 13 13 13 13 14 15 14 13 13 12 13 12 12 12 12 12 12 12
11 12 13 11 13 16 7 7 11 9 8 8 9 9 10 10 10 10 10 10 11 13 13 12 13 13 12 13 13 14 14 12 12 12 13 13 13 12 12 12 12 13 13 14
12 9 11 10 12 7 6 8 7 7 8 9 9 9 9 10 10 9 10 10 12 12 13 12 13 13 13 12 12 14 13 12 12 12 12 12 12 12 12 13 13 14 14 15
8 7 9 9 9 8 7 7 7 7 8 8 8 8 8 9 9 9 9 10 11 12 12 12 13 13 13 12 13 13 13 12 12 12 12 12 12 12 12 12 13 14 15 16
7 7 9 10 8 8 8 8 8 8 8 8 8 8 8 9 9 9 10 10 10 11 11 12 13 13 13 12 12 12 12 12 13 12 12 13 12 12 12 12 13 13 14 14
6 8 10 11 7 8 8 7 7 8 8 8 9 9 9 9 10 10 10 10 11 11 11 12 12 13 13 13 13 13 12 12 13 13 13 13 12 12 12 12 12 12 13 13

GFSCGP_con_lsi_138.txt.gz
Lid_Strength_Index
8 11 12 10 10 10 12 12 13 11 9 10 11 11 10 7 8 9 9 9 8 8 7 7 7 7 6 5 4 3 2 1 2 2 2 2 2 1 1 0 0 0 0 0
10 13 9 9 10 11 11 12 12 10 9 10 11 11 7 7 9 9 9 9 9 9 8 8 8 8 8 7 5 3 4 3 1 2 2 1 1 1 1 0 0 0 0 0
11 10 9 10 11 12 11 12 12 12 11 10 11 11 9 7 8 8 8 8 9 10 10 9 8 9 9 8 7 5 4 3 1 1 2 2 1 1 2 1 1 1 0 0
10 9 10 11 12 11 13 10 11 12 13 15 9 15 9 8 9 9 9 9 9 9 9 8 9 9 9 8 7 6 5 4 2 1 2 2 2 3 2 2 1 1 0 0
12 11 12 12 12 10 12 10 11 11 12 11 10 12 11 10 11 10 9 9 9 9 9 9 10 9 9 9 9 8 7 5 4 2 1 2 2 2 2 1 2 1 1 0
11 9 10 11 9 10 9 10 9 9 10 15 11 12 14 12 12 10 10 10 10 10 10 10 10 10 10 10 10 9 8 7 5 3 1 2 2 2 2 2 2 2 1 1
12 12 10 9 11 9 10 10 14 15 16 17 11 12 13 11 10 10 11 11 10 10 11 11 12 12 12 12 12 10 10 10 6 4 3 2 2 2 2 2 2 2 2 2
13 15 11 9 10 11 10 10 14 19 17 15 10 15 14 10 9 9 9 10 11 12 11 12 12 13 13 13 12 12 11 10 7 4 3 3 2 2 2 2 2 2 2 2
14 14 10 9 10 8 10 12 9 13 12 15 12 13 10 11 11 10 11 11 12 12 12 13 13 13 13 13 13 13 12 10 8 6 3 4 4 4 5 3 4 2 1 1
12 14 11 11 9 7 8 7 12 13 18 18 14 16 15 14 13 12 12 12 12 12 13 13 13 14 13 13 13 13 12 11 9 7 7 5 6 6 6 6 6 5 4 2
10 12 13 10 10 10 10 11 11 10 12 16 18 17 11 13 12 13 12 12 12 13 13 13 14 14 14 13 13 13 13 12 11 9 8 7 7 8 8 7 7 8 7 8
10 11 13 11 7 7 8 10 10 14 15 14 16 17 11 11 11 11 12 12 12 12 13 13 13 14 14 14 14 14 13 13 13 10 9 10 10 10 10 10 9 9 9 8
10 12 14 13 10 8 9 9 9 9 11 15 18 17 10 11 11 11 12 11 12 13 12 13 13 14 14 14 14 14 14 14 13 12 11 11 11 11 11 11 11 10 10 10
7 10 12 15 14 10 12 11 9 10 14 15 15 15 13 13 13 12 12 11 12 13 13 13 13 14 14 14 14 14 14 14 14 13 13 13 12 12 13 13 12 12 10 11
8 12 10 9 9 9 11 10 11 12 12 15 14 13 13 12 11 12 12 11 12 12 13 13 13 14 14 15 14 14 13 14 13 14 14 14 13 13 13 13 12 12 12 12
7 12 10 11 9 11 12 10 10 10 11 11 12 13 10 9 9 11 11 11 12 12 12 13 13 13 14 14 14 14 14 14 14 14 14 13 13 13 13 13 13 14 12 12
9 11 11 14 11 12 15 13 11 11 11 11 13 12 10 11 11 11 11 11 12 12 12 12 13 13 14 14 14 14 14 14 14 14 14 14 13 14 14 14 13 14 13 13
9 10 10 14 13 18 13 8 9 11 12 11 11 11 10 10 10 10 10 12 12 12 13 13 12 13 13 14 14 13 13 14 14 15 14 14 14 14 14 14 14 13 13 14
7 9 12 15 15 13 11 9 10 11 12 10 11 10 9 8 9 10 10 10 11 12 12 12 12 12 13 13 13 14 14 14 14 15 14 14 14 15 15 15 15 15 14 14
7 8 11 12 15 17 12 8 7 7 14 9 9 10 10 9 12 12 10 10 11 11 12 12 12 12 13 13 12 13 14 14 15 14 14 13 14 15 15 15 15 15 15 15
12 11 13 13 14 13 9 7 6 14 13 9 9 9 10 11 11 10 9 10 10 11 12 12 13 13 13 12 13 14 14 14 13 13 13 13 13 13 12 14 15 16 16 16
12 13 13 12 14 17 7 8 11 9 8 8 9 9 10 10 9 9 9 10 11 12 12 12 13 13 13 13 13 14 15 13 13 12 12 13 14 13 13 14 13 14 16 16
13 10 12 11 12 8 7 8 6 6 8 8 9 8 8 9 9 9 10 10 11 12 12 12 12 13 12 12 13 14 14 13 13 13 13 13 13 13 13 14 15 16 16 17
8 7 10 10 8 8 8 7 7 7 8 7 7 8 8 9 9 9 9 10 11 11 12 12 12 13 13 12 13 13 13 12 13 14 14 13 14 13 13 13 14 15 16 17
7 7 9 10 9 9 8 8 8 8 8 8 7 8 8 8 9 9 10 10 10 11 11 12 13 13 13 13 13 13 12 12 13 13 13 13 13 14 13 13 13 15 15 16
7 9 10 11 8 8 9 8 7 8 8 8 8 8 8 8 9 9 10 10 11 11 11 12 13 13 13 13 14 13 12 12 13 14 14 13 13 13 13 14 14 12 13 14

GFSCGP_con_lsi_141.txt.gz
Lid_Strength_Index
9 12 14 12 11 11 13 14 15 14 11 12 13 13 12 10 11 12 12 12 12 12 10 10 10 10 10 10 10 10 9 9 7 6 5 4 2 1 1 0 0 0 -0 0
12 14 10 9 10 11 13 14 15 12 10 12 14 14 11 11 11 12 12 12 12 12 11 11 11 11 11 11 10 11 10 9 8 7 5 4 2 1 1 1 0 0 0 0
14 11 8 9 11 12 13 14 14 14 13 13 14 14 12 11 11 11 11 11 11 12 12 12 11 12 11 11 11 11 11 10 8 7 5 4 3 1 2 1 1 1 0 0
12 10 10 12 12 12 15 11 12 13 15 18 13 19 12 13 13 12 12 12 12 12 11 11 11 12 11 11 10 10 10 9 7 7 6 5 4 4 4 1 1 1 0 0
13 11 12 12 12 11 13 11 12 13 15 16 13 17 15 13 14 13 12 12 12 12 11 11 11 11 11 11 11 11 10 9 9 8 6 6 5 2 2 1 2 1 1 1
12 9 10 11 10 10 10 12 12 12 14 20 13 14 17 16 14 13 12 13 12 12 11 11 11 11 12 12 12 11 11 11 9 9 8 6 6 4 2 2 2 2 1 1
12 11 11 10 12 10 11 14 19 20 19 19 12 15 16 13 12 12 13 13 12 12 12 12 13 13 13 13 13 12 12 12 11 10 9 7 6 5 4 2 2 2 2 2
16 18 12 9 11 12 12 13 18 21 21 18 12 17 16 11 10 11 11 12 12 12 12 12 13 13 13 13 13 13 13 13 12 11 10 9 6 5 5 5 2 2 2 1
15 14 10 10 10 11 12 14 11 14 14 18 16 14 12 11 12 11 12 12 12 13 12 13 13 13 13 13 13 13 13 12 12 12 11 9 7 6 6 4 2 2 4 4
12 15 10 11 11 11 12 10 15 15 21 21 18 17 16 14 13 12 13 13 12 12 12 12 13 13 13 13 13 13 13 13 12 12 11 10 9 7 6 5 6 5 4 3
11 13 14 12 13 13 12 13 12 12 15 19 21 18 12 13 13 13 12 12 12 12 13 13 13 13 13 13 13 13 13 13 13 12 12 11 10 9 7 7 6 7 5 5
11 12 16 14 10 9 10 11 12 17 16 15 17 18 10 12 12 12 12 13 14 12 12 12 13 13 14 14 14 14 14 14 13 13 13 12 11 10 9 9 8 8 8 7
11 14 18 16 13 10 10 10 10 11 12 16 19 19 10 11 12 11 14 14 13 12 12 13 13 14 15 15 14 14 14 14 14 13 14 13 12 10 10 10 10 10 9 8
9 13 14 19 16 12 13 11 10 11 16 17 18 16 16 14 14 13 13 13 14 15 13 13 13 14 15 15 14 14 14 14 14 13 14 14 14 12 11 11 11 10 10 11
10 14 12 11 10 10 11 11 11 12 12 15 15 14 13 13 13 14 13 13 13 13 13 13 13 14 14 15 14 14 14 14 14 14 14 14 13 14 12 11 12 12 13 11
10 13 11 12 10 11 12 10 11 11 11 12 13 13 11 9 9 12 12 13 13 13 13 13 13 13 14 14 13 14 14 14 14 14 14 14 13 13 14 13 12 13 13 15
11 12 13 15 11 13 16 13 12 11 11 11 14 13 11 10 11 13 13 13 13 13 14 13 13 14 14 14 13 13 13 13 14 14 14 14 14 15 15 14 15 14 15 15
10 11 12 16 14 19 14 9 9 13 12 12 12 12 11 10 11 12 12 13 13 13 14 13 13 13 13 13 13 13 12 13 13 13 14 14 14 16 15 16 16 16 15 15
8 10 14 17 17 14 12 10 12 13 14 10 11 9 10 10 10 12 10 11 13 13 13 13 12 13 13 13 13 13 13 13 13 13 13 13 14 15 16 17 17 17 16 17
8 9 13 14 17 20 13 9 8 9 15 9 9 10 10 11 13 14 11 11 12 12 12 13 12 13 13 13 13 15 14 14 13 13 13 13 13 14 15 16 17 18 18 18
13 13 15 15 16 14 9 8 8 15 16 9 10 10 11 13 12 10 10 12 12 12 12 12 12 13 13 13 14 16 15 15 13 12 13 13 13 13 15 15 16 17 17 18
14 15 15 14 16 18 8 8 12 13 9 9 10 9 10 10 9 9 11 12 12 13 12 12 13 13 12 13 14 16 15 14 13 14 14 14 14 13 13 15 16 16 17 17
14 11 14 13 14 10 9 10 9 9 10 9 9 9 9 9 10 10 11 11 12 13 15 13 13 13 13 14 14 15 14 13 13 15 15 15 15 15 14 15 16 17 17 18
9 7 12 12 11 11 10 9 9 9 9 9 9 9 9 10 10 10 11 11 12 15 16 16 15 14 14 14 14 14 13 12 13 15 15 15 16 15 15 14 15 17 18 19
9 9 12 12 10 10 10 10 9 10 9 9 9 9 9 10 10 11 12 12 12 13 14 15 16 14 15 15 15 14 14 12 14 14 14 14 15 15 15 15 14 16 17 17
8 11 14 16 11 11 11 9 8 10 10 9 10 10 10 10 11 11 12 12 12 13 13 14 14 14 14 15 15 15 14 12 14 15 14 15 15 15 15 16 16 13 14 15

GFSCGP_con_lsi_144.txt.gz
Lid_Strength_Index
11 13 15 13 12 11 13 14 15 15 12 13 14 14 13 13 13 13 13 13 13 13 12 11 11 12 12 12 12 12 12 11 11 10 10 9 8 6 5 3 -0 0 0 -0
14 15 12 10 10 12 13 14 15 13 11 13 14 14 13 13 13 13 14 14 14 13 13 12 12 12 13 12 12 12 12 12 11 10 10 9 7 6 5 3 0 0 0 0
15 13 10 11 12 12 14 14 14 14 13 13 14 15 14 13 12 13 13 13 13 14 14 13 12 12 12 13 13 12 12 12 11 10 9 9 7 6 4 4 3 0 0 0
13 11 11 12 12 12 16 12 12 13 15 18 14 20 15 14 14 14 14 14 14 14 13 13 13 13 13 12 12 12 11 11 10 9 9 9 9 9 6 5 3 3 0 0
14 12 13 13 13 12 14 11 12 13 15 16 15 18 17 14 15 15 14 14 14 13 13 13 13 13 12 12 12 11 11 11 11 10 9 9 8 7 5 4 3 3 1 0
13 11 11 12 11 11 11 12 13 13 15 20 14 15 18 17 15 14 13 13 13 13 13 13 12 11 12 11 11 11 11 11 11 11 10 10 10 9 7 6 5 2 2 1
13 13 12 11 13 11 12 14 19 19 19 19 13 16 18 14 13 14 14 13 12 12 12 13 13 12 12 12 12 12 12 12 12 11 11 11 10 10 9 8 7 6 4 2
17 18 13 11 12 13 13 14 18 20 20 19 13 19 17 12 12 11 11 11 12 12 12 13 12 12 12 12 12 13 13 13 12 12 12 11 11 10 10 8 8 6 4 1
16 16 11 11 10 11 13 15 12 16 16 20 17 15 13 12 12 12 12 12 12 12 12 13 12 12 12 12 12 13 13 13 12 12 12 12 12 11 11 9 7 6 5 3
12 16 12 11 11 12 11 11 16 16 21 21 18 16 19 15 14 12 15 15 14 12 12 12 13 13 13 13 13 13 13 13 13 13 12 12 12 11 11 10 10 8 6 5
11 13 14 12 14 15 14 14 13 13 16 19 21 20 12 14 14 14 13 15 14 12 12 12 14 14 14 14 13 13 13 13 13 13 13 13 13 12 11 11 10 8 6 5
11 13 16 15 11 11 12 12 13 17 17 16 18 21 10 12 13 12 13 14 16 14 15 12 14 15 14 15 13 14 13 14 13 13 13 13 13 13 12 11 11 9 8 6
11 13 17 16 14 12 13 12 11 12 14 16 21 20 11 12 13 11 14 14 13 14 15 16 16 15 14 15 14 14 13 13 13 13 13 14 14 14 13 12 12 11 9 9
8 12 15 17 15 13 14 12 11 12 16 17 18 17 13 13 15 13 14 13 15 16 15 16 16 16 15 15 14 14 13 13 13 13 13 14 14 14 14 13 12 13 12 11
9 14 12 12 11 11 11 12 12 13 13 15 16 15 13 14 14 16 16 14 14 15 14 15 17 15 15 15 14 13 13 12 12 13 14 14 13 13 14 14 13 13 13 13
10 13 12 13 11 12 12 11 11 12 12 13 13 14 10 9 11 12 13 14 15 15 14 13 14 14 14 14 13 13 13 12 12 12 13 14 14 14 14 15 14 15 14 14
11 13 14 15 12 12 17 14 12 12 11 12 14 13 11 11 12 13 13 13 14 14 14 13 14 14 14 14 13 14 13 12 12 12 12 13 13 15 16 16 16 16 16 16
12 12 12 16 14 20 14 9 10 13 12 12 12 12 11 12 12 12 12 13 14 14 13 13 13 14 13 14 14 14 13 13 12 13 12 12 13 14 15 16 17 17 17 17
8 11 15 17 17 14 12 11 12 12 14 11 12 11 13 12 12 13 12 13 13 13 13 13 13 13 13 14 14 14 14 13 13 13 13 13 12 13 14 16 16 17 17 18
9 10 13 15 18 19 13 9 8 10 17 11 10 11 12 11 13 15 13 13 13 13 13 12 13 13 13 14 14 15 14 14 14 14 14 13 13 13 14 15 16 16 16 17
13 13 15 15 16 14 10 9 8 15 16 11 11 12 12 14 13 13 13 13 13 13 13 12 13 14 13 14 15 16 14 14 13 14 13 14 14 13 14 14 15 16 17 17
13 14 15 14 16 18 8 9 12 13 11 11 11 11 12 11 12 12 13 13 13 14 13 13 14 14 14 14 15 16 14 13 14 15 15 15 15 14 14 16 16 17 17 18
14 11 14 13 14 11 9 10 10 10 11 11 11 10 10 11 12 12 12 13 13 14 16 14 15 14 14 14 15 16 15 13 15 16 16 16 15 15 14 17 18 18 18 18
9 8 13 12 11 11 10 10 10 10 11 10 10 10 10 11 11 12 12 13 14 17 18 17 16 17 17 15 14 15 14 13 14 15 16 15 16 16 16 15 17 18 19 19
10 10 12 13 12 11 11 11 11 11 11 11 11 10 11 11 12 12 13 13 13 14 15 16 18 17 17 16 15 14 14 13 14 14 14 15 15 17 17 17 15 18 18 17
9 11 14 15 11 12 12 11 11 12 12 11 11 11 11 11 12 12 13 13 13 14 14 15 15 16 16 16 16 15 14 13 14 14 15 15 15 16 17 18 19 15 16 15